User: anonymous   Login
Location: Oshawa
(43.9000°N, 78.8670°W)
Time: 12:19:36
(UTC-05:00)
Language:

Cosmos 1500 - Orbit

View from above orbital plane
View from above orbital plane
View from above satellite
View from above satellite

Ground track
Ground track

The orbit data is extracted from the following two-line orbital elements,

1 14372U 83099A   16037.76375539  .00002680  00000-0  13702-3 0  9990
2 14372  82.5172 113.7231 0016198  16.0814 123.1486 15.16133402762542
Epoch (UTC): 06 February 2016 18:19:48
Eccentricity: 0.0016198
inclination: 82.5172°
perigee height: 506 km
apogee height: 529 km
right ascension of ascending node: 113.7231°
argument of perigee: 16.0814°
revolutions per day: 15.16133402
mean anomaly at epoch: 123.1486°
orbit number at epoch: 76254

The dashed part of the orbit path shows where the satellite is in the earth's shadow,  

DLR